Hourly Data Report for June 10, 2003

SHERBROOKE A
QUEBEC

45°26'00.000" N
71°41'00.000" W
241.40 m
7028124
71610
YSC

Download Data

Hourly Data (June 2003)
Hourly Data Report for June 10, 2003
TIME
LST
Temp Definition
°C
Dew Point Definition
°C
Rel Hum Definition
%
Precip. Amount Definition
mm

Wind Dir Definition
10's deg

Wind Spd Definition
km/h
Visibility Definition
km
Stn Press Definition
kPa
Hmdx Definition


Wind Chill Definition


Weather Definition


00:00 13.8 11.8 88   23 15 15.0 97.67      
01:00 13.3 12.1 92   22 15 4.0 97.70     Rain
02:00 12.4 11.0 91   27 20 15.0 97.84     Drizzle
03:00 11.9 9.4 85   27 24 15.0 97.98     Drizzle
04:00 11.6 9.0 84   25 19 15.0 98.14      
05:00 11.4 8.1 80   27 19 15.0 98.25      
06:00 11.5 8.0 79   26 17 15.0 98.40      
07:00 12.0 7.4 73   27 24 24.1 98.51     Mostly Cloudy
08:00 13.5 8.2 70   27 24 24.1 98.57     Mostly Cloudy
09:00 14.2 8.1 67   27 15 24.1 98.56     Mostly Cloudy
10:00 15.4 7.7 60   28 17 24.1 98.63     Mostly Cloudy
11:00 15.9 7.1 56   26 15 24.1 98.62     Mainly Clear
12:00 17.0 7.5 54   28 22 24.1 98.61     Mainly Clear
13:00 17.2 6.4 49   27 15 24.1 98.62     Mainly Clear
14:00 17.0 5.7 47   27 20 24.1 98.60     Mostly Cloudy
15:00 17.6 6.5 48   27 17 24.1 98.63     Mainly Clear
16:00 17.9 4.3 41   31 13 24.1 98.67     Mostly Cloudy
17:00 17.5 5.5 45   26 15 15.0 98.64      
18:00 16.3 5.5 49   25 9 15.0 98.65      
19:00 15.4 6.3 55   22 6 15.0 98.66      
20:00 12.7 5.7 62   20 7 15.0 98.70      
21:00 10.9 6.4 74   18 6 15.0 98.74      
22:00 8.6 6.1 84   8 6 15.0 98.72      
23:00 7.6 5.9 89   12 4 15.0 98.75      

Notes on Data Quality.

Legend

  • E = Estimated
  • M = Missing
  • NA = Not Available*
  • [empty] = Indicates an unobserved value
Date modified: